• In Hungary
  • List of Countries
  • For 7 days
  • Water Temperature
  • Satellite Maps
  • Weather Map
  • News
  • Weather Widgets
  • user-avatar
    Login

    Hourly Weather Minaevka

    Today, 21 July, Saturday

    Time Temperature Precipitation Wind Pressure Humidity
    00:00 +12°C° 0 mm 2 mps 751 mmHg 56%
    01:00 +10°C° 0 mm 2 mps 751 mmHg 56%
    02:00 +9°C° 0 mm 2 mps 751 mmHg 56%
    03:00 +8°C° 0 mm 2 mps 751 mmHg 56%
    04:00 +9°C° 0 mm 2 mps 751 mmHg 55%
    05:00 +9°C° 0 mm 2 mps 751 mmHg 54%
    06:00 +12°C° 0 mm 1 mps 751 mmHg 55%
    07:00 +14°C° 0 mm 2 mps 751 mmHg 50%
    08:00 +16°C° 0 mm 2 mps 751 mmHg 44%
    09:00 +18°C° 0 mm 2 mps 751 mmHg 39%
    10:00 +19°C° 0 mm 3 mps 750 mmHg 35%
    11:00 +21°C° 0 mm 3 mps 750 mmHg 31%
    12:00 +20°C° 0 mm 4 mps 750 mmHg 29%
    13:00 +21°C° 0 mm 3 mps 750 mmHg 30%
    14:00 +21°C° 0 mm 3 mps 750 mmHg 30%
    15:00 +21°C° 0 mm 3 mps 750 mmHg 31%
    16:00 +21°C° 0 mm 2 mps 750 mmHg 35%
    17:00 +20°C° 0 mm 2 mps 750 mmHg 39%
    18:00 +20°C° 0 mm 2 mps 750 mmHg 42%
    19:00 +18°C° 0 mm 2 mps 750 mmHg 48%
    20:00 +16°C° 0 mm 2 mps 750 mmHg 53%
    21:00 +15°C° 0 mm 2 mps 750 mmHg 59%
    22:00 +14°C° 0 mm 2 mps 750 mmHg 65%
    23:00 +13°C° 0 mm 2 mps 749 mmHg 70%

    Tomorrow, 22 July, Sunday

    Time Temperature Precipitation Wind Pressure Humidity
    00:00 +13°C° 0 mm 2 mps 749 mmHg 76%
    01:00 +13°C° 0 mm 2 mps 749 mmHg 78%
    02:00 +12°C° 0 mm 2 mps 749 mmHg 80%
    03:00 +12°C° 0 mm 2 mps 749 mmHg 82%
    04:00 +12°C° 0 mm 3 mps 749 mmHg 75%
    05:00 +13°C° 0 mm 3 mps 749 mmHg 69%
    06:00 +13°C° 0 mm 3 mps 749 mmHg 62%
    07:00 +16°C° 0 mm 3 mps 749 mmHg 56%
    08:00 +17°C° 0 mm 4 mps 749 mmHg 50%
    09:00 +19°C° 0 mm 4 mps 749 mmHg 44%
    10:00 +20°C° 0 mm 4 mps 749 mmHg 41%
    11:00 +22°C° 0 mm 5 mps 749 mmHg 39%
    12:00 +23°C° 0 mm 5 mps 749 mmHg 37%
    13:00 +25°C° 0 mm 5 mps 749 mmHg 37%
    14:00 +25°C° 0 mm 5 mps 748 mmHg 37%
    15:00 +25°C° 0 mm 5 mps 748 mmHg 36%
    16:00 +23°C° 0 mm 4 mps 748 mmHg 41%
    17:00 +22°C° 0 mm 3 mps 748 mmHg 46%
    18:00 +21°C° 0 mm 3 mps 748 mmHg 50%
    19:00 +20°C° 0 mm 3 mps 748 mmHg 50%
    20:00 +19°C° 0 mm 3 mps 748 mmHg 49%
    21:00 +18°C° 0 mm 4 mps 748 mmHg 49%
    22:00 +18°C° 0 mm 4 mps 748 mmHg 47%
    23:00 +17°C° 0 mm 4 mps 748 mmHg 45%

    Day after tomorrow, 23 July, Monday

    Time Temperature Precipitation Wind Pressure Humidity
    00:00 +17°C° 0 mm 4 mps 748 mmHg 44%
    01:00 +15°C° 0.1 mm 4 mps 748 mmHg 44%
    02:00 +15°C° 0.1 mm 4 mps 748 mmHg 45%
    03:00 +14°C° 0.1 mm 4 mps 747 mmHg 46%
    04:00 +14°C° 0.1 mm 4 mps 747 mmHg 47%
    05:00 +14°C° 0.1 mm 4 mps 747 mmHg 49%
    06:00 +13°C° 0.1 mm 4 mps 747 mmHg 50%
    07:00 +14°C° 0.4 mm 4 mps 747 mmHg 52%
    08:00 +14°C° 0.4 mm 4 mps 747 mmHg 55%
    09:00 +15°C° 0.4 mm 4 mps 747 mmHg 57%
    10:00 +17°C° 0.1 mm 4 mps 747 mmHg 57%
    11:00 +17°C° 0.1 mm 4 mps 747 mmHg 56%
    12:00 +18°C° 0.1 mm 4 mps 747 mmHg 56%
    13:00 +19°C° 0 mm 4 mps 747 mmHg 52%
    14:00 +21°C° 0 mm 5 mps 747 mmHg 48%
    15:00 +22°C° 0 mm 5 mps 747 mmHg 45%
    16:00 +22°C° 0 mm 4 mps 746 mmHg 45%
    17:00 +22°C° 0 mm 3 mps 746 mmHg 46%
    18:00 +22°C° 0 mm 3 mps 746 mmHg 46%
    19:00 +21°C° 0 mm 3 mps 746 mmHg 48%
    20:00 +20°C° 0 mm 3 mps 746 mmHg 51%
    21:00 +18°C° 0 mm 3 mps 746 mmHg 53%
    22:00 +18°C° 0 mm 3 mps 746 mmHg 51%
    23:00 +17°C° 0 mm 3 mps 746 mmHg 49%

    24 July, Tuesday

    Time Temperature Precipitation Wind Pressure Humidity
    00:00 +16°C° 0 mm 3 mps 745 mmHg 48%
    01:00 +16°C° 0 mm 3 mps 745 mmHg 48%
    02:00 +14°C° 0 mm 3 mps 745 mmHg 49%
    03:00 +13°C° 0 mm 3 mps 745 mmHg 50%
    04:00 +13°C° 0 mm 3 mps 745 mmHg 50%
    05:00 +13°C° 0 mm 3 mps 745 mmHg 50%
    06:00 +14°C° 0 mm 3 mps 745 mmHg 50%
    07:00 +17°C° 0 mm 4 mps 744 mmHg 45%
    08:00 +20°C° 0 mm 4 mps 744 mmHg 39%
    09:00 +22°C° 0 mm 5 mps 744 mmHg 34%
    10:00 +25°C° 0 mm 5 mps 744 mmHg 32%
    11:00 +26°C° 0 mm 5 mps 744 mmHg 30%
    12:00 +28°C° 0 mm 5 mps 744 mmHg 28%
    13:00 +28°C° 0 mm 4 mps 744 mmHg 29%
    14:00 +29°C° 0 mm 4 mps 744 mmHg 29%
    15:00 +29°C° 0 mm 4 mps 744 mmHg 29%
    16:00 +29°C° 0 mm 4 mps 744 mmHg 33%
    17:00 +29°C° 0 mm 3 mps 744 mmHg 37%
    18:00 +28°C° 0 mm 3 mps 745 mmHg 41%
    19:00 +26°C° 0 mm 3 mps 745 mmHg 43%
    20:00 +24°C° 0 mm 3 mps 745 mmHg 45%
    21:00 +20°C° 0 mm 3 mps 746 mmHg 47%
    22:00 +19°C° 0 mm 3 mps 746 mmHg 48%
    23:00 +18°C° 0 mm 3 mps 746 mmHg 49%

    25 July, Wednesday

    Time Temperature Precipitation Wind Pressure Humidity
    00:00 +17°C° 0 mm 3 mps 747 mmHg 50%
    01:00 +14°C° 0 mm 3 mps 747 mmHg 52%
    02:00 +14°C° 0 mm 2 mps 747 mmHg 54%
    03:00 +13°C° 0 mm 2 mps 747 mmHg 56%
    04:00 +13°C° 0 mm 2 mps 748 mmHg 56%
    05:00 +13°C° 0 mm 2 mps 748 mmHg 57%
    06:00 +12°C° 0 mm 3 mps 749 mmHg 57%
    07:00 +16°C° 0 mm 3 mps 749 mmHg 52%
    08:00 +18°C° 0 mm 3 mps 749 mmHg 47%
    09:00 +20°C° 0 mm 4 mps 749 mmHg 41%
    10:00 +21°C° 0 mm 4 mps 749 mmHg 39%
    11:00 +22°C° 0 mm 4 mps 749 mmHg 36%
    12:00 +23°C° 0 mm 4 mps 749 mmHg 33%
    13:00 +23°C° 0 mm 4 mps 749 mmHg 32%
    14:00 +25°C° 0 mm 4 mps 749 mmHg 32%
    15:00 +25°C° 0 mm 4 mps 749 mmHg 31%
    16:00 +25°C° 0 mm 4 mps 749 mmHg 33%
    17:00 +25°C° 0 mm 3 mps 749 mmHg 34%
    18:00 +24°C° 0 mm 3 mps 749 mmHg 36%
    19:00 +21°C° 0 mm 3 mps 749 mmHg 43%
    20:00 +19°C° 0 mm 2 mps 749 mmHg 50%
    21:00 +16°C° 0 mm 1 mps 749 mmHg 57%
    22:00 +16°C° 0 mm 1 mps 749 mmHg 57%
    23:00 +15°C° 0 mm 1 mps 749 mmHg 57%

    26 July, Thursday

    Time Temperature Precipitation Wind Pressure Humidity
    00:00 +15°C° 0 mm 1 mps 750 mmHg 58%
    01:00 +15°C° 0 mm 1 mps 750 mmHg 56%
    02:00 +16°C° 0 mm 1 mps 750 mmHg 54%
    03:00 +16°C° 0 mm 1 mps 750 mmHg 52%
    04:00 +18°C° 0 mm 1 mps 749 mmHg 55%
    05:00 +18°C° 0 mm 1 mps 749 mmHg 58%
    06:00 +18°C° 0 mm 1 mps 749 mmHg 61%
    07:00 +20°C° 0 mm 1 mps 749 mmHg 57%
    08:00 +22°C° 0 mm 1 mps 750 mmHg 52%
    09:00 +25°C° 0 mm 1 mps 750 mmHg 48%
    10:00 +26°C° 0.1 mm 2 mps 749 mmHg 47%
    11:00 +27°C° 0.1 mm 2 mps 749 mmHg 46%
    12:00 +28°C° 0.1 mm 2 mps 749 mmHg 45%
    13:00 +27°C° 0.7 mm 2 mps 749 mmHg 54%
    14:00 +26°C° 0.7 mm 3 mps 749 mmHg 63%
    15:00 +25°C° 0.7 mm 3 mps 748 mmHg 72%
    16:00 +24°C° 1 mm 3 mps 748 mmHg 78%
    17:00 +23°C° 1 mm 2 mps 748 mmHg 83%
    18:00 +23°C° 1 mm 2 mps 748 mmHg 88%
    19:00 +20°C° 0.1 mm 2 mps 749 mmHg 90%
    20:00 +19°C° 0.1 mm 3 mps 749 mmHg 92%
    21:00 +18°C° 0.1 mm 3 mps 749 mmHg 94%
    22:00 +17°C° 0 mm 3 mps 749 mmHg 94%
    23:00 +17°C° 0 mm 3 mps 749 mmHg 94%
    Show more